Location: Powder Track
(41.8531°N, 72.3584°W)
Time: 23:47:39
(UTC+00:00)

Vanguard 2 Rocket - Pass Details

Date: 03 August 2021
Orbit: 556 x 3324 km, 32.9° (Epoch: 22 September)

Event Time Altitude Azimuth Distance (km) Brightness Sun altitude
Rises 16:49:15 0° 252° (WSW) 3,021 9.7 65.4°
Reaches altitude 10° 16:52:59 10° 220° (SW) 2,426 9.5 65.5°
Maximum altitude 16:55:03 12° 198° (SSW) 2,493 9.7 65.5°
Drops below altitude 10° 16:57:25 10° 177° (S) 2,890 10.0 65.5°
Sets 17:03:09 0° 150° (SSE) 4,523 10.8 65.4°
